Time,TemperatureF,DewpointF,PressureIn,WindDirection,WindDirectionDegrees,WindSpeedMPH,WindSpeedGustMPH,Humidity,HourlyPrecipIn,Conditions,Clouds,dailyrainin,SoftwareType,DateUTC
2013-03-20 00:03:00,39.0,15.0,-100.00,North,5,4.0,9.0,36,0.00,,,-99.99,,2013-03-20 04:03:00,
2013-03-20 00:12:00,38.0,15.0,-100.00,NNE,25,4.0,12.0,37,0.00,,,-99.99,,2013-03-20 04:12:00,
2013-03-20 00:23:00,38.0,15.0,-100.00,NNE,25,5.0,12.0,37,0.00,,,-99.99,,2013-03-20 04:23:00,
2013-03-20 00:32:00,38.0,15.0,-100.00,NE,50,5.0,9.0,39,0.00,,,-99.99,,2013-03-20 04:32:00,
2013-03-20 00:43:00,38.0,15.0,-100.00,North,0,4.0,9.0,39,0.00,,,-99.99,,2013-03-20 04:43:00,
2013-03-20 00:52:00,38.0,15.0,-100.00,North,0,4.0,10.0,39,0.00,,,-99.99,,2013-03-20 04:52:00,
2013-03-20 01:03:00,38.0,16.0,-100.00,North,0,5.0,11.0,39,0.00,,,-99.99,,2013-03-20 05:03:00,
2013-03-20 01:12:00,38.0,16.0,-100.00,North,5,6.0,11.0,40,0.00,,,-99.99,,2013-03-20 05:12:00,
2013-03-20 01:23:00,38.0,16.0,-100.00,North,5,6.0,12.0,41,0.00,,,-99.99,,2013-03-20 05:23:00,
2013-03-20 01:32:00,37.0,16.0,-100.00,North,0,4.0,9.0,41,0.00,,,-99.99,,2013-03-20 05:32:00,
2013-03-20 01:42:00,37.0,17.0,-100.00,North,0,3.0,8.0,42,0.00,,,-99.99,,2013-03-20 05:42:00,
2013-03-20 01:52:00,37.0,16.0,-100.00,North,0,4.0,7.0,42,0.00,,,-99.99,,2013-03-20 05:52:00,
2013-03-20 02:03:00,37.0,16.0,-100.00,North,0,4.0,6.0,42,0.00,,,-99.99,,2013-03-20 06:03:00,
2013-03-20 02:12:00,36.0,17.0,-100.00,North,0,3.0,6.0,44,0.00,,,-99.99,,2013-03-20 06:12:00,
2013-03-20 02:22:00,37.0,17.0,-100.00,NNE,15,4.0,7.0,43,0.00,,,-99.99,,2013-03-20 06:22:00,
2013-03-20 02:32:00,36.0,17.0,-100.00,North,10,4.0,6.0,44,0.00,,,-99.99,,2013-03-20 06:32:00,
2013-03-20 02:42:00,36.0,17.0,-100.00,NNE,30,2.0,6.0,45,0.00,,,-99.99,,2013-03-20 06:42:00,
2013-03-20 02:52:00,36.0,17.0,-100.00,NE,45,4.0,7.0,45,0.00,,,-99.99,,2013-03-20 06:52:00,
2013-03-20 03:02:00,36.0,17.0,-100.00,NNE,15,2.0,6.0,45,0.00,,,-99.99,,2013-03-20 07:02:00,
2013-03-20 03:12:00,36.0,17.0,-100.00,NNE,15,2.0,6.0,46,0.00,,,-99.99,,2013-03-20 07:12:00,
2013-03-20 03:22:00,36.0,17.0,-100.00,North,10,2.0,6.0,46,0.00,,,-99.99,,2013-03-20 07:22:00,
2013-03-20 03:32:00,36.0,17.0,-100.00,North,0,2.0,6.0,46,0.00,,,-99.99,,2013-03-20 07:32:00,
2013-03-20 03:42:00,36.0,17.0,-100.00,North,0,4.0,7.0,46,0.00,,,-99.99,,2013-03-20 07:42:00,
2013-03-20 03:52:00,35.0,17.0,-100.00,NE,35,2.0,6.0,46,0.00,,,-99.99,,2013-03-20 07:52:00,
2013-03-20 04:02:00,35.0,17.0,-100.00,NNE,30,2.0,6.0,47,0.00,,,-99.99,,2013-03-20 08:02:00,
2013-03-20 04:12:00,35.0,17.0,-100.00,NE,40,2.0,6.0,46,0.00,,,-99.99,,2013-03-20 08:12:00,
2013-03-20 04:22:00,35.0,17.0,-100.00,North,5,3.0,7.0,46,0.00,,,-99.99,,2013-03-20 08:22:00,
2013-03-20 04:32:00,35.0,17.0,-100.00,North,5,2.0,12.0,48,0.00,,,-99.99,,2013-03-20 08:32:00,
2013-03-20 04:42:00,34.0,17.0,-100.00,North,0,2.0,7.0,50,0.00,,,-99.99,,2013-03-20 08:42:00,
2013-03-20 04:52:00,35.0,17.0,-100.00,North,0,1.0,9.0,49,0.00,,,-99.99,,2013-03-20 08:52:00,
2013-03-20 05:02:00,33.0,18.0,-100.00,NNW,340,1.0,3.0,53,0.00,,,-99.99,,2013-03-20 09:02:00,
2013-03-20 05:12:00,33.0,18.0,-100.00,North,0,1.0,3.0,54,0.00,,,-99.99,,2013-03-20 09:12:00,
2013-03-20 05:22:00,32.0,20.0,-100.00,NNW,330,1.0,3.0,60,0.00,,,-99.99,,2013-03-20 09:22:00,
2013-03-20 05:33:00,31.0,20.0,-100.00,SSW,210,1.0,3.0,62,0.00,,,-99.99,,2013-03-20 09:33:00,
2013-03-20 05:43:00,31.0,20.0,-100.00,WNW,290,1.0,2.0,63,0.00,,,-99.99,,2013-03-20 09:43:00,
2013-03-20 05:52:00,30.0,20.0,-100.00,WNW,300,1.0,3.0,67,0.00,,,-99.99,,2013-03-20 09:52:00,
2013-03-20 06:03:00,30.0,21.0,-100.00,NNW,330,0.0,1.0,67,0.00,,,-99.99,,2013-03-20 10:03:00,
2013-03-20 06:12:00,30.0,20.0,-100.00,SW,220,1.0,4.0,65,0.00,,,-99.99,,2013-03-20 10:12:00,
2013-03-20 06:23:00,30.0,20.0,-100.00,West,275,0.0,2.0,64,0.00,,,-99.99,,2013-03-20 10:23:00,
2013-03-20 06:33:00,30.0,20.0,-100.00,West,275,1.0,2.0,65,0.00,,,-99.99,,2013-03-20 10:33:00,
2013-03-20 06:42:00,29.0,21.0,-100.00,West,270,1.0,3.0,70,0.00,,,-99.99,,2013-03-20 10:42:00,
2013-03-20 06:52:00,30.0,21.0,-100.00,NW,320,1.0,3.0,71,0.00,,,-99.99,,2013-03-20 10:52:00,
2013-03-20 07:03:00,29.0,22.0,-100.00,NW,320,1.0,4.0,72,0.00,,,-99.99,,2013-03-20 11:03:00,
2013-03-20 07:12:00,29.0,21.0,-100.00,WNW,295,1.0,3.0,69,0.00,,,-99.99,,2013-03-20 11:12:00,
2013-03-20 07:22:00,29.0,21.0,-100.00,West,270,1.0,3.0,70,0.00,,,-99.99,,2013-03-20 11:22:00,
2013-03-20 07:32:00,29.0,22.0,-100.00,WNW,300,1.0,4.0,73,0.00,,,-99.99,,2013-03-20 11:32:00,
2013-03-20 07:42:00,29.0,22.0,-100.00,WNW,300,2.0,4.0,73,0.00,,,-99.99,,2013-03-20 11:42:00,
2013-03-20 07:52:00,29.0,22.0,-100.00,NW,325,2.0,4.0,75,0.00,,,-99.99,,2013-03-20 11:52:00,
2013-03-20 08:02:00,30.0,21.0,-100.00,NNW,335,1.0,4.0,70,0.00,,,-99.99,,2013-03-20 12:02:00,
2013-03-20 08:12:00,31.0,20.0,-100.00,North,0,2.0,5.0,64,0.00,,,-99.99,,2013-03-20 12:12:00,
2013-03-20 08:22:00,31.0,19.0,-100.00,North,0,2.0,6.0,60,0.00,,,-99.99,,2013-03-20 12:22:00,
2013-03-20 08:32:00,32.0,19.0,-100.00,NNW,330,2.0,5.0,58,0.55,,,-99.99,,2013-03-20 12:32:00,
2013-03-20 08:42:00,32.0,19.0,-100.00,North,0,2.0,6.0,57,0.55,,,-99.99,,2013-03-20 12:42:00,
2013-03-20 08:52:00,33.0,19.0,-100.00,North,0,2.0,5.0,56,0.55,,,-99.99,,2013-03-20 12:52:00,
2013-03-20 09:03:00,34.0,19.0,-100.00,NE,50,2.0,7.0,54,0.00,,,-99.99,,2013-03-20 13:03:00,
2013-03-20 09:12:00,34.0,19.0,-100.00,NNW,335,5.0,9.0,53,0.00,,,-99.99,,2013-03-20 13:12:00,
2013-03-20 09:22:00,34.0,19.0,-100.00,NNE,25,3.0,9.0,53,0.00,,,-99.99,,2013-03-20 13:22:00,
2013-03-20 09:32:00,34.0,19.0,-100.00,NNW,345,4.0,7.0,53,0.00,,,-99.99,,2013-03-20 13:32:00,
2013-03-20 09:42:00,35.0,19.0,-100.00,North,0,4.0,7.0,52,0.00,,,-99.99,,2013-03-20 13:42:00,
2013-03-20 09:52:00,36.0,19.0,-100.00,North,0,5.0,9.0,49,0.55,,,-99.99,,2013-03-20 13:52:00,
2013-03-20 10:03:00,36.0,18.0,-100.00,NNE,25,11.0,14.0,47,0.00,,,-99.99,,2013-03-20 14:03:00,
2013-03-20 10:12:00,36.0,18.0,-100.00,NE,45,9.0,16.0,47,0.00,,,-99.99,,2013-03-20 14:12:00,
2013-03-20 10:23:00,37.0,19.0,-100.00,NE,35,7.0,16.0,47,0.00,,,-99.99,,2013-03-20 14:23:00,
2013-03-20 10:34:00,37.0,19.0,-100.00,NE,55,7.0,13.0,47,0.00,,,-99.99,,2013-03-20 14:34:00,
2013-03-20 10:42:00,37.0,18.0,-100.00,NE,40,5.0,14.0,46,0.00,,,-99.99,,2013-03-20 14:42:00,
2013-03-20 11:03:00,37.0,17.0,-100.00,North,0,6.0,12.0,44,0.00,,,-99.99,,2013-03-20 15:03:00,
2013-03-20 11:12:00,38.0,18.0,-100.00,NE,35,6.0,13.0,43,0.00,,,-99.99,,2013-03-20 15:12:00,
2013-03-20 11:22:00,37.0,18.0,-100.00,North,0,9.0,16.0,45,0.00,,,-99.99,,2013-03-20 15:22:00,
2013-03-20 11:33:00,38.0,17.0,-100.00,North,0,10.0,16.0,41,0.00,,,-99.99,,2013-03-20 15:33:00,
2013-03-20 11:43:00,38.0,16.0,-100.00,NNE,25,9.0,19.0,40,0.00,,,-99.99,,2013-03-20 15:43:00,
2013-03-20 11:52:00,38.0,16.0,-100.00,NNE,25,12.0,22.0,40,0.00,,,-99.99,,2013-03-20 15:52:00,
2013-03-20 12:03:00,38.0,15.0,-100.00,North,5,10.0,22.0,39,0.00,,,-99.99,,2013-03-20 16:03:00,
2013-03-20 12:12:00,38.0,15.0,-100.00,NE,40,11.0,19.0,39,0.00,,,-99.99,,2013-03-20 16:12:00,
2013-03-20 12:23:00,38.0,16.0,-100.00,NE,40,13.0,19.0,40,0.00,,,-99.99,,2013-03-20 16:23:00,
2013-03-20 12:33:00,38.0,16.0,-100.00,NNE,15,7.0,16.0,40,0.00,,,-99.99,,2013-03-20 16:33:00,
2013-03-20 12:43:00,37.0,15.0,-100.00,NNE,25,9.0,19.0,40,0.00,,,-99.99,,2013-03-20 16:43:00,
2013-03-20 12:52:00,38.0,16.0,-100.00,NE,45,7.0,19.0,40,0.00,,,-99.99,,2013-03-20 16:52:00,
2013-03-20 13:03:00,36.0,14.0,-100.00,NE,35,10.0,21.0,39,0.00,,,-99.99,,2013-03-20 17:03:00,
2013-03-20 13:12:00,36.0,12.0,-100.00,North,0,9.0,22.0,36,0.00,,,-99.99,,2013-03-20 17:12:00,
2013-03-20 13:22:00,37.0,11.0,-100.00,NE,40,9.0,21.0,34,0.00,,,-99.99,,2013-03-20 17:22:00,
2013-03-20 13:32:00,38.0,12.0,-100.00,NNE,15,6.0,18.0,35,0.00,,,-99.99,,2013-03-20 17:32:00,
2013-03-20 13:42:00,38.0,13.0,-100.00,North,0,12.0,22.0,35,0.00,,,-99.99,,2013-03-20 17:42:00,
2013-03-20 13:52:00,38.0,13.0,-100.00,NNE,25,11.0,20.0,34,0.00,,,-99.99,,2013-03-20 17:52:00,
2013-03-20 14:02:00,39.0,13.0,-100.00,ENE,60,14.0,22.0,33,0.00,,,-99.99,,2013-03-20 18:02:00,
2013-03-20 14:12:00,38.0,13.0,-100.00,NNE,30,12.0,22.0,35,0.00,,,-99.99,,2013-03-20 18:12:00,
2013-03-20 14:22:00,38.0,12.0,-100.00,ENE,75,12.0,18.0,34,0.00,,,-99.99,,2013-03-20 18:22:00,
2013-03-20 14:33:00,37.0,12.0,-100.00,NNE,30,7.0,26.0,35,0.00,,,-99.99,,2013-03-20 18:33:00,
2013-03-20 14:42:00,38.0,13.0,-100.00,East,90,9.0,19.0,35,0.00,,,-99.99,,2013-03-20 18:42:00,
2013-03-20 14:52:00,38.0,14.0,-100.00,NNE,25,7.0,23.0,37,0.00,,,-99.99,,2013-03-20 18:52:00,
2013-03-20 15:02:00,39.0,14.0,-100.00,ENE,65,11.0,19.0,35,0.00,,,-99.99,,2013-03-20 19:02:00,
2013-03-20 15:12:00,38.0,14.0,-100.00,North,0,8.0,20.0,36,0.00,,,-99.99,,2013-03-20 19:12:00,
2013-03-20 15:22:00,39.0,14.0,-100.00,NE,35,12.0,18.0,35,0.00,,,-99.99,,2013-03-20 19:22:00,
2013-03-20 15:32:00,38.0,13.0,-100.00,ENE,70,12.0,19.0,35,0.00,,,-99.99,,2013-03-20 19:32:00,
2013-03-20 15:42:00,37.0,12.0,-100.00,NNE,30,9.0,21.0,35,0.00,,,-99.99,,2013-03-20 19:42:00,
2013-03-20 15:52:00,39.0,13.0,-100.00,NE,40,7.0,19.0,34,0.00,,,-99.99,,2013-03-20 19:52:00,
2013-03-20 16:02:00,38.0,13.0,-100.00,NE,40,11.0,18.0,35,0.00,,,-99.99,,2013-03-20 20:02:00,
2013-03-20 16:13:00,38.0,13.0,-100.00,NNE,30,10.0,19.0,35,0.00,,,-99.99,,2013-03-20 20:13:00,
2013-03-20 16:22:00,38.0,14.0,-100.00,NE,35,5.0,19.0,35,0.00,,,-99.99,,2013-03-20 20:22:00,
2013-03-20 16:32:00,39.0,13.0,-100.00,NNE,30,9.0,19.0,33,0.00,,,-99.99,,2013-03-20 20:32:00,
2013-03-20 16:42:00,38.0,12.0,-100.00,North,0,11.0,21.0,33,0.00,,,-99.99,,2013-03-20 20:42:00,
2013-03-20 16:52:00,39.0,12.0,-100.00,NNE,25,9.0,18.0,33,0.00,,,-99.99,,2013-03-20 20:52:00,
2013-03-20 17:02:00,38.0,11.0,-100.00,North,0,9.0,20.0,32,0.00,,,-99.99,,2013-03-20 21:02:00,
2013-03-20 17:12:00,38.0,12.0,-100.00,NNE,25,9.0,19.0,34,0.00,,,-99.99,,2013-03-20 21:12:00,
2013-03-20 17:22:00,37.0,10.0,-100.00,NE,45,11.0,17.0,31,0.00,,,-99.99,,2013-03-20 21:22:00,
2013-03-20 17:33:00,38.0,11.0,-100.00,NE,50,12.0,19.0,32,0.00,,,-99.99,,2013-03-20 21:33:00,
2013-03-20 17:42:00,38.0,12.0,-100.00,NE,55,9.0,21.0,33,0.00,,,-99.99,,2013-03-20 21:42:00,
2013-03-20 17:52:00,37.0,11.0,-100.00,NE,45,10.0,19.0,34,0.00,,,-99.99,,2013-03-20 21:52:00,
2013-03-20 18:03:00,37.0,11.0,-100.00,NNE,30,6.0,19.0,35,0.00,,,-99.99,,2013-03-20 22:03:00,
2013-03-20 18:12:00,36.0,11.0,-100.00,ENE,65,11.0,19.0,34,0.00,,,-99.99,,2013-03-20 22:12:00,
2013-03-20 18:23:00,36.0,11.0,-100.00,NNE,30,10.0,19.0,35,0.00,,,-99.99,,2013-03-20 22:23:00,
2013-03-20 18:33:00,35.0,12.0,-100.00,ENE,65,11.0,19.0,37,0.00,,,-99.99,,2013-03-20 22:33:00,
2013-03-20 18:42:00,35.0,12.0,-100.00,NE,40,14.0,22.0,37,0.00,,,-99.99,,2013-03-20 22:42:00,
2013-03-20 18:52:00,35.0,12.0,-100.00,ENE,60,9.0,17.0,38,0.00,,,-99.99,,2013-03-20 22:52:00,
2013-03-20 19:02:00,35.0,11.0,-100.00,ENE,65,11.0,17.0,37,0.00,,,-99.99,,2013-03-20 23:02:00,
2013-03-20 19:12:00,34.0,11.0,-100.00,NE,35,10.0,22.0,38,0.00,,,-99.99,,2013-03-20 23:12:00,
2013-03-20 19:22:00,33.0,10.0,-100.00,ENE,65,8.0,19.0,37,0.00,,,-99.99,,2013-03-20 23:22:00,
2013-03-20 19:32:00,33.0,10.0,-100.00,NE,35,13.0,22.0,38,0.00,,,-99.99,,2013-03-20 23:32:00,
2013-03-20 19:42:00,33.0,10.0,-100.00,NE,50,12.0,22.0,38,0.00,,,-99.99,,2013-03-20 23:42:00,
2013-03-20 19:52:00,32.0,10.0,-100.00,NE,55,12.0,24.0,38,0.00,,,-99.99,,2013-03-20 23:52:00,
2013-03-20 20:03:00,32.0,10.0,-100.00,East,90,9.0,19.0,39,0.00,,,-99.99,,2013-03-21 00:03:00,
2013-03-20 20:12:00,31.0,9.0,-100.00,NE,35,11.0,21.0,39,0.00,,,-99.99,,2013-03-21 00:12:00,
2013-03-20 20:23:00,31.0,8.0,-100.00,NE,50,16.0,22.0,37,0.00,,,-99.99,,2013-03-21 00:23:00,
2013-03-20 20:33:00,31.0,8.0,-100.00,NE,45,14.0,26.0,38,0.00,,,-99.99,,2013-03-21 00:33:00,
2013-03-20 20:42:00,30.0,9.0,-100.00,NE,40,7.0,24.0,40,0.00,,,-99.99,,2013-03-21 00:42:00,
2013-03-20 20:52:00,30.0,9.0,-100.00,NE,40,15.0,22.0,41,0.00,,,-99.99,,2013-03-21 00:52:00,
2013-03-20 21:02:00,29.0,10.0,-100.00,NE,50,13.0,23.0,43,0.00,,,-99.99,,2013-03-21 01:02:00,
2013-03-20 21:12:00,29.0,10.0,-100.00,ENE,60,10.0,19.0,44,0.00,,,-99.99,,2013-03-21 01:12:00,
2013-03-20 21:22:00,29.0,10.0,-100.00,NE,50,14.0,20.0,44,0.00,,,-99.99,,2013-03-21 01:22:00,
2013-03-20 21:33:00,29.0,10.0,-100.00,NE,55,7.0,22.0,45,0.00,,,-99.99,,2013-03-21 01:33:00,
2013-03-20 21:42:00,29.0,10.0,-100.00,NNE,30,11.0,19.0,45,0.00,,,-99.99,,2013-03-21 01:42:00,
2013-03-20 21:52:00,28.0,8.0,-100.00,NE,50,10.0,19.0,43,0.00,,,-99.99,,2013-03-21 01:52:00,
2013-03-20 22:02:00,28.0,9.0,-100.00,NE,50,12.0,19.0,44,0.00,,,-99.99,,2013-03-21 02:02:00,
2013-03-20 22:12:00,28.0,9.0,-100.00,NE,40,10.0,17.0,44,0.00,,,-99.99,,2013-03-21 02:12:00,
2013-03-20 22:22:00,28.0,9.0,-100.00,ENE,65,11.0,18.0,44,0.00,,,-99.99,,2013-03-21 02:22:00,
2013-03-20 22:33:00,28.0,9.0,-100.00,NE,45,6.0,16.0,45,0.00,,,-99.99,,2013-03-21 02:33:00,
2013-03-20 22:42:00,28.0,9.0,-100.00,NE,45,6.0,16.0,45,0.00,,,-99.99,,2013-03-21 02:42:00,
2013-03-20 22:51:00,28.0,9.0,-100.00,NE,45,6.0,16.0,45,0.00,,,-99.99,,2013-03-21 02:51:00,
2013-03-20 23:02:00,28.0,9.0,-100.00,North,5,7.0,13.0,45,0.00,,,-99.99,,2013-03-21 03:02:00,
2013-03-20 23:12:00,28.0,9.0,-100.00,NNE,30,6.0,16.0,45,0.00,,,-99.99,,2013-03-21 03:12:00,
2013-03-20 23:22:00,27.0,9.0,-100.00,NE,35,6.0,12.0,45,0.00,,,-99.99,,2013-03-21 03:22:00,
2013-03-20 23:33:00,27.0,9.0,-100.00,NNE,30,7.0,14.0,45,0.00,,,-99.99,,2013-03-21 03:33:00,
2013-03-20 23:43:00,27.0,9.0,-100.00,NE,45,7.0,11.0,46,0.00,,,-99.99,,2013-03-21 03:43:00,
2013-03-20 23:53:00,27.0,9.0,-100.00,NE,55,6.0,11.0,46,0.00,,,-99.99,,2013-03-21 03:53:00,